When you browse on this site, cookies collect data to enhance your experience and personalize the content and advertising you see.
Visit our Privacy Policy to learn more. By continuing to use the site, you agree to this use of cookies and data.
  • Em Portugal
  • Lista de países
  • Para 7 dias
  • Temperatura da água
  • Mapas de satélite
  • Mapa do tempo
  • Widgets de tempo
  • user-avatar
    Iniciar Sessão

    Previsão horária em Chernomorec

    Hoje, 21 Maio, Terça-feira

    Tempo Temperatura Precipitação Vento Pressão Humidade
    00:00 +20°C° 0 mm 6 m/s 758 mmHg 60%
    01:00 +19°C° 0 mm 5 m/s 758 mmHg 65%
    02:00 +18°C° 0 mm 4 m/s 758 mmHg 70%
    03:00 +17°C° 0 mm 4 m/s 758 mmHg 74%
    04:00 +17°C° 0 mm 3 m/s 758 mmHg 78%
    05:00 +17°C° 0 mm 3 m/s 758 mmHg 82%
    06:00 +18°C° 0 mm 3 m/s 758 mmHg 77%
    07:00 +20°C° 0 mm 3 m/s 758 mmHg 72%
    08:00 +22°C° 0 mm 3 m/s 758 mmHg 67%
    09:00 +24°C° 0 mm 3 m/s 758 mmHg 61%
    10:00 +26°C° 0 mm 3 m/s 758 mmHg 55%
    11:00 +27°C° 0 mm 3 m/s 758 mmHg 49%
    12:00 +28°C° 0 mm 3 m/s 758 mmHg 47%
    13:00 +28°C° 0 mm 4 m/s 758 mmHg 45%
    14:00 +29°C° 0 mm 4 m/s 758 mmHg 43%
    15:00 +28°C° 0 mm 4 m/s 757 mmHg 45%
    16:00 +28°C° 0 mm 4 m/s 757 mmHg 48%
    17:00 +27°C° 0 mm 4 m/s 757 mmHg 51%
    18:00 +25°C° 0 mm 4 m/s 757 mmHg 55%
    19:00 +22°C° 0 mm 4 m/s 757 mmHg 59%
    20:00 +20°C° 0 mm 3 m/s 758 mmHg 63%
    21:00 +19°C° 0 mm 3 m/s 758 mmHg 65%
    22:00 +18°C° 0 mm 3 m/s 758 mmHg 68%
    23:00 +17°C° 0 mm 3 m/s 759 mmHg 70%

    Amanhã, 22 Maio, Quarta-feira

    Tempo Temperatura Precipitação Vento Pressão Humidade
    00:00 +17°C° 0 mm 3 m/s 759 mmHg 73%
    01:00 +16°C° 0 mm 3 m/s 759 mmHg 76%
    02:00 +16°C° 0 mm 3 m/s 759 mmHg 79%
    03:00 +14°C° 0 mm 3 m/s 759 mmHg 81%
    04:00 +14°C° 0 mm 3 m/s 759 mmHg 83%
    05:00 +14°C° 0 mm 3 m/s 760 mmHg 84%
    06:00 +17°C° 0 mm 2 m/s 760 mmHg 78%
    07:00 +19°C° 0 mm 2 m/s 760 mmHg 72%
    08:00 +21°C° 0 mm 2 m/s 761 mmHg 66%
    09:00 +23°C° 0 mm 2 m/s 761 mmHg 60%
    10:00 +25°C° 0 mm 1 m/s 761 mmHg 54%
    11:00 +26°C° 0 mm 1 m/s 761 mmHg 49%
    12:00 +26°C° 0 mm 1 m/s 761 mmHg 49%
    13:00 +26°C° 0 mm 2 m/s 761 mmHg 50%
    14:00 +26°C° 0 mm 3 m/s 761 mmHg 50%
    15:00 +26°C° 0 mm 3 m/s 760 mmHg 52%
    16:00 +26°C° 0 mm 3 m/s 760 mmHg 54%
    17:00 +25°C° 0 mm 3 m/s 760 mmHg 56%
    18:00 +24°C° 0 mm 3 m/s 760 mmHg 62%
    19:00 +21°C° 0 mm 3 m/s 760 mmHg 67%
    20:00 +19°C° 0 mm 3 m/s 760 mmHg 73%
    21:00 +19°C° 0 mm 2 m/s 760 mmHg 73%
    22:00 +20°C° 0 mm 1 m/s 760 mmHg 73%
    23:00 +19°C° 0 mm 1 m/s 760 mmHg 73%

    Depois de amanhã, 23 Maio, Quinta-feira

    Tempo Temperatura Precipitação Vento Pressão Humidade
    00:00 +19°C° 0 mm 1 m/s 760 mmHg 72%
    01:00 +19°C° 0 mm 1 m/s 760 mmHg 71%
    02:00 +18°C° 0 mm 1 m/s 760 mmHg 69%
    03:00 +18°C° 0 mm 1 m/s 760 mmHg 68%
    04:00 +18°C° 0 mm 1 m/s 760 mmHg 67%
    05:00 +18°C° 0 mm 1 m/s 760 mmHg 67%
    06:00 +19°C° 0 mm 1 m/s 760 mmHg 64%
    07:00 +21°C° 0 mm 1 m/s 760 mmHg 62%
    08:00 +22°C° 0 mm 1 m/s 760 mmHg 59%
    09:00 +24°C° 0 mm 1 m/s 760 mmHg 55%
    10:00 +26°C° 0 mm 1 m/s 760 mmHg 50%
    11:00 +27°C° 0 mm 1 m/s 760 mmHg 45%
    12:00 +28°C° 0 mm 1 m/s 759 mmHg 45%
    13:00 +28°C° 0 mm 2 m/s 759 mmHg 44%
    14:00 +28°C° 0 mm 3 m/s 759 mmHg 43%
    15:00 +27°C° 0 mm 3 m/s 759 mmHg 50%
    16:00 +26°C° 0 mm 3 m/s 758 mmHg 56%
    17:00 +25°C° 0 mm 3 m/s 758 mmHg 63%
    18:00 +24°C° 0 mm 3 m/s 758 mmHg 65%
    19:00 +21°C° 0 mm 2 m/s 758 mmHg 68%
    20:00 +20°C° 0 mm 2 m/s 758 mmHg 70%
    21:00 +19°C° 0 mm 2 m/s 758 mmHg 72%
    22:00 +18°C° 0 mm 2 m/s 758 mmHg 74%
    23:00 +18°C° 0 mm 1 m/s 758 mmHg 76%

    24 Maio, Sexta-feira

    Tempo Temperatura Precipitação Vento Pressão Humidade
    00:00 +18°C° 0 mm 1 m/s 757 mmHg 78%
    01:00 +18°C° 0 mm 1 m/s 757 mmHg 79%
    02:00 +16°C° 0 mm 1 m/s 757 mmHg 81%
    03:00 +18°C° 0 mm 1 m/s 756 mmHg 81%
    04:00 +18°C° 0 mm 1 m/s 756 mmHg 80%
    05:00 +18°C° 0 mm 1 m/s 756 mmHg 80%
    06:00 +18°C° 0 mm 2 m/s 756 mmHg 80%
    07:00 +18°C° 0 mm 2 m/s 756 mmHg 80%
    08:00 +19°C° 0 mm 2 m/s 756 mmHg 80%
    09:00 +20°C° 0 mm 3 m/s 756 mmHg 76%
    10:00 +21°C° 0 mm 4 m/s 756 mmHg 73%
    11:00 +22°C° 0 mm 4 m/s 756 mmHg 69%
    12:00 +23°C° 0 mm 5 m/s 755 mmHg 67%
    13:00 +23°C° 0 mm 5 m/s 755 mmHg 65%
    14:00 +25°C° 0 mm 5 m/s 755 mmHg 63%
    15:00 +23°C° 0 mm 4 m/s 754 mmHg 65%
    16:00 +23°C° 0 mm 4 m/s 754 mmHg 67%
    17:00 +22°C° 0 mm 3 m/s 754 mmHg 69%
    18:00 +20°C° 0 mm 2 m/s 754 mmHg 75%
    19:00 +20°C° 0 mm 1 m/s 754 mmHg 80%
    20:00 +16°C° 0 mm 0 m/s 754 mmHg 86%
    21:00 +18°C° 0.1 mm 1 m/s 754 mmHg 87%
    22:00 +18°C° 0.1 mm 1 m/s 754 mmHg 88%
    23:00 +18°C° 0.1 mm 1 m/s 754 mmHg 88%

    25 Maio, Sábado

    Tempo Temperatura Precipitação Vento Pressão Humidade
    00:00 +17°C° 0.8 mm 2 m/s 754 mmHg 90%
    01:00 +17°C° 0.8 mm 2 m/s 754 mmHg 92%
    02:00 +17°C° 0.8 mm 3 m/s 754 mmHg 93%
    03:00 +16°C° 0 mm 3 m/s 755 mmHg 93%
    04:00 +16°C° 0 mm 3 m/s 755 mmHg 93%
    05:00 +16°C° 0 mm 3 m/s 755 mmHg 94%
    06:00 +17°C° 0 mm 3 m/s 755 mmHg 89%
    07:00 +18°C° 0 mm 3 m/s 756 mmHg 84%
    08:00 +20°C° 0 mm 3 m/s 756 mmHg 79%
    09:00 +21°C° 0 mm 3 m/s 756 mmHg 74%
    10:00 +23°C° 0 mm 2 m/s 756 mmHg 68%
    11:00 +24°C° 0 mm 2 m/s 756 mmHg 63%
    12:00 +24°C° 0.4 mm 2 m/s 756 mmHg 64%
    13:00 +25°C° 0.4 mm 1 m/s 756 mmHg 65%
    14:00 +25°C° 0.4 mm 1 m/s 756 mmHg 67%
    15:00 +25°C° 0.2 mm 1 m/s 756 mmHg 66%
    16:00 +25°C° 0.2 mm 1 m/s 756 mmHg 66%
    17:00 +25°C° 0.2 mm 1 m/s 756 mmHg 65%
    18:00 +23°C° 0 mm 1 m/s 756 mmHg 72%
    19:00 +21°C° 0 mm 1 m/s 756 mmHg 80%
    20:00 +20°C° 0 mm 1 m/s 757 mmHg 87%
    21:00 +19°C° 0 mm 1 m/s 757 mmHg 88%
    22:00 +19°C° 0 mm 1 m/s 757 mmHg 89%
    23:00 +18°C° 0 mm 1 m/s 757 mmHg 90%

    26 Maio, Domingo

    Tempo Temperatura Precipitação Vento Pressão Humidade
    00:00 +18°C° 0 mm 1 m/s 757 mmHg 90%
    01:00 +18°C° 0 mm 1 m/s 757 mmHg 90%
    02:00 +15°C° 0 mm 0 m/s 757 mmHg 91%
    03:00 +15°C° 0 mm 0 m/s 757 mmHg 91%
    04:00 +15°C° 0 mm 0 m/s 757 mmHg 91%
    05:00 +15°C° 0 mm 0 m/s 758 mmHg 91%
    06:00 +19°C° 0 mm 1 m/s 758 mmHg 86%
    07:00 +21°C° 0 mm 1 m/s 758 mmHg 80%
    08:00 +22°C° 0 mm 1 m/s 758 mmHg 75%
    09:00 +23°C° 0.3 mm 2 m/s 758 mmHg 75%
    10:00 +24°C° 0.3 mm 2 m/s 758 mmHg 74%
    11:00 +24°C° 0.3 mm 3 m/s 758 mmHg 74%
    12:00 +24°C° 0.3 mm 3 m/s 758 mmHg 73%
    13:00 +25°C° 0.3 mm 3 m/s 758 mmHg 73%
    14:00 +25°C° 0.3 mm 4 m/s 758 mmHg 73%
    15:00 +23°C° 0 mm 4 m/s 757 mmHg 75%
    16:00 +22°C° 0 mm 4 m/s 757 mmHg 77%
    17:00 +22°C° 0 mm 4 m/s 757 mmHg 79%
    18:00 +21°C° 0 mm 3 m/s 757 mmHg 83%
    19:00 +19°C° 0 mm 3 m/s 758 mmHg 87%
    20:00 +18°C° 0 mm 3 m/s 758 mmHg 91%
    21:00 +18°C° 0 mm 2 m/s 758 mmHg 92%
    22:00 +17°C° 0 mm 2 m/s 758 mmHg 92%
    23:00 +17°C° 0 mm 2 m/s 758 mmHg 92%
    Mostrar mais